Weather History for KMLF - February, 2013

Change the Weather History Date:

Wednesday, February 27, 2013

  Actual Average Record
Temperature  
Mean Temperature 21 °F -  
Max Temperature 36 °F 43 °F 63 °F (2006)
Min Temperature 6 °F 21 °F 6 °F (2013)
Degree Days  
Heating Degree Days 44    
Moisture  
Dew Point 12 °F    
Average Humidity 64    
Maximum Humidity 84    
Minimum Humidity 28    
Precipitation  
Precipitation 0.00 in - - ()
Sea Level Pressure  
Sea Level Pressure 30.48 in    
Wind  
Wind Speed 4 mph (North)    
Max Wind Speed 15 mph    
Max Gust Speed -    
Visibility 10 miles    
Events      
Averages and records for this station are not official NWS values.
T = Trace of Precipitation, MM = Missing Value Source: NWS Daily Summary

Daily Weather History Graph

Daily Weather History Graph

Search for Another Location

Airport or City:

Trip Planner

Search our weather history database for the weather conditions in past years. The results will help you decide how hot, cold, wet, or windy it might be!

Date:

Astronomy

Feb. 27, 2013 Rise Set
Actual Time 7:06 AM MST 6:23 PM MST
Civil Twilight 6:39 AM MST 6:50 PM MST
Nautical Twilight 6:09 AM MST 7:20 PM MST
Astronomical Twilight 5:38 AM MST 7:51 PM MST
Moon 8:46 PM MST (2/27) 7:46 AM MST (2/27)
Length of Visible Light 12h 10m
Length of Day
11h 17m
Waning Gibbous, 96% of the Moon is Illuminated
Feb 27
Waning Gibbous
Mar 4
Last Quarter
Mar 11
New
Mar 19
First Quarter
Mar 27
Full

Hourly Weather History & Observations

Time (MST) Temp. Windchill Dew Point Humidity Pressure Visibility Wind Dir Wind Speed Gust Speed Precip Events Conditions
12:52 AM 9.0 °F - 3.9 °F 80% 30.43 in 10.0 mi Calm Calm - N/A   Clear
1:52 AM 8.1 °F - 3.0 °F 80% 30.45 in 10.0 mi Calm Calm - N/A   Clear
2:52 AM 9.0 °F - 5.0 °F 84% 30.45 in 10.0 mi Calm Calm - N/A   Clear
3:52 AM 10.0 °F -1.9 °F 3.9 °F 76% 30.43 in 10.0 mi West 8.1 mph - N/A   Clear
4:52 AM 10.0 °F - 5.0 °F 80% 30.44 in 10.0 mi Calm Calm - N/A   Clear
5:52 AM 8.1 °F -2.0 °F 3.9 °F 83% 30.46 in 10.0 mi SW 5.8 mph - N/A   Clear
6:52 AM 9.0 °F - 3.9 °F 80% 30.51 in 10.0 mi Calm Calm - N/A   Clear
7:52 AM 10.0 °F 3.6 °F 6.1 °F 84% 30.54 in 10.0 mi South 3.5 mph - N/A   Clear
8:52 AM 21.0 °F - 12.0 °F 68% 30.51 in 10.0 mi Calm Calm - N/A   Clear
9:52 AM 24.1 °F - 12.9 °F 62% 30.50 in 10.0 mi Calm Calm - N/A   Clear
10:52 AM 28.0 °F 20.0 °F 15.1 °F 58% 30.52 in 10.0 mi North 8.1 mph - 0.00 in   Clear
11:52 AM 30.0 °F 20.5 °F 15.1 °F 54% 30.49 in 10.0 mi North 11.5 mph - 0.00 in   Clear
12:52 PM 32.0 °F 24.8 °F 16.0 °F 52% 30.49 in 10.0 mi North 8.1 mph - 0.00 in   Clear
1:52 PM 34.0 °F 25.5 °F 17.1 °F 50% 30.48 in 10.0 mi North 11.5 mph - 0.00 in   Clear
2:52 PM 35.1 °F 25.5 °F 16.0 °F 46% 30.46 in 10.0 mi North 15.0 mph - N/A   Clear
3:52 PM 37.0 °F 28.5 °F 17.1 °F 44% 30.44 in 0.8 mi NNE 13.8 mph - N/A   Haze
4:06 PM 35.6 °F 26.2 °F 17.6 °F 48% 30.34 in 4.0 mi NNE 15.0 mph - N/A   Haze
4:52 PM 36.0 °F 27.5 °F 15.1 °F 43% 30.46 in 10.0 mi NNE 12.7 mph - N/A   Clear
5:52 PM 34.0 °F 26.6 °F 14.0 °F 44% 30.49 in 10.0 mi NNE 9.2 mph - N/A   Clear
6:52 PM 26.1 °F 19.4 °F 16.0 °F 66% 30.52 in 10.0 mi NNE 5.8 mph - N/A   Clear
7:52 PM 24.1 °F 15.2 °F 16.0 °F 71% 30.52 in 10.0 mi NNW 8.1 mph - N/A   Clear
8:52 PM 21.0 °F 16.2 °F 15.1 °F 78% 30.49 in 10.0 mi NE 3.5 mph - N/A   Clear
9:52 PM 21.0 °F 13.4 °F 15.1 °F 78% 30.49 in 10.0 mi NNE 5.8 mph - N/A   Clear
10:52 PM 18.0 °F - 12.9 °F 81% 30.50 in 10.0 mi Calm Calm - N/A   Clear
11:52 PM 21.0 °F 11.4 °F 14.0 °F 74% 30.49 in 10.0 mi WNW 8.1 mph - N/A   Clear